Location: Boncourt
(49.6160°N, 3.9448°E)
Time: 22:16:29
(UTC+00:00)

FENGYUN 3D - Visible Passes

Search period start: 26 February 2024 00:00
Search period end: 07 March 2024 00:00
Orbit: 827 x 828 km, 98.9° (Epoch: 26 February)

Date Brightness Start Highest point End Pass type
(mag) Time Alt. Az. Time Alt. Az. Time Alt. Az.
26 Feb ? 02:22:38 10° NNE 02:24:42 24° NNE 02:24:42 24° NNE visible
26 Feb ? 04:03:32 10° N 04:06:14 22° NNW 04:06:14 22° NNW visible
27 Feb ? 02:04:13 10° NNE 02:06:03 21° NE 02:06:03 21° NE visible
27 Feb ? 03:44:42 10° N 03:47:34 26° NNW 03:47:34 26° NNW visible
28 Feb ? 01:45:54 10° NNE 01:47:24 17° NE 01:47:24 17° NE visible
28 Feb ? 03:25:58 10° N 03:28:55 30° NNW 03:28:55 30° NNW visible
29 Feb ? 01:27:45 10° NE 01:28:45 14° NE 01:28:45 14° NE visible
29 Feb ? 03:07:17 10° N 03:10:17 33° N 03:10:17 33° N visible
29 Feb ? 04:49:33 10° NNW 04:51:48 13° NW 04:51:48 13° NW visible
01 Mar ? 01:09:52 10° NE 01:10:07 11° NE 01:10:07 11° NE visible
01 Mar ? 02:48:41 10° NNE 02:51:38 34° NNE 02:51:38 34° NNE visible
01 Mar ? 04:30:14 10° NNW 04:33:10 17° NW 04:33:10 17° NW visible
02 Mar ? 02:30:09 10° NNE 02:32:59 32° NNE 02:32:59 32° NNE visible
02 Mar ? 04:11:13 10° N 04:14:32 22° NW 04:14:32 22° NW visible
03 Mar ? 02:11:42 10° NNE 02:14:21 28° NE 02:14:21 28° NE visible
03 Mar ? 03:52:20 10° N 03:55:53 27° NW 03:55:53 27° NW visible
04 Mar ? 01:53:20 10° NNE 01:55:42 23° NE 01:55:42 23° NE visible
04 Mar ? 03:33:34 10° N 03:37:14 34° NNW 03:37:14 34° NNW visible
05 Mar ? 01:35:06 10° NE 01:37:04 19° NE 01:37:04 19° NE visible
05 Mar ? 03:14:52 10° N 03:18:35 40° NNW 03:18:35 40° NNW visible
05 Mar ? 04:57:35 10° NNW 04:59:13 11° NW 05:00:07 11° WNW visible
06 Mar ? 01:17:05 10° NE 01:18:25 14° ENE 01:18:25 14° ENE visible
06 Mar ? 02:56:14 10° NNE 02:59:57 45° N 02:59:57 45° N visible
06 Mar ? 04:38:01 10° NNW 04:41:00 15° NW 04:41:28 15° WNW visible
